TimeGMT,TemperatureF,Dew PointF,Humidity,Sea Level PressureIn,VisibilityMPH,Wind Direction,Wind SpeedMPH,Gust SpeedMPH,PrecipitationIn,Events,Conditions,WindDirDegrees,DateUTC
12:00 AM,43,41,92,30.59,9,NNE,3.5,,,,Overcast,20,2013-12-02 00:00:00
12:50 AM,44.6,42.8,93,30.57,6.2,SE,1.2,-,N/A,,Overcast,140,2013-12-02 00:50:00
1:50 AM,42.8,42.8,100,30.57,6.2,NE,3.5,-,N/A,,Overcast,50,2013-12-02 01:50:00
2:50 AM,42.8,42.8,100,30.57,6.2,East,3.5,-,N/A,,Overcast,80,2013-12-02 02:50:00
3:00 AM,43,42,95,30.59,6,East,3.5,,,,Overcast,80,2013-12-02 03:00:00
3:50 AM,42.8,42.8,100,30.57,6.2,Calm,Calm,-,N/A,,Overcast,0,2013-12-02 03:50:00
4:50 AM,42.8,42.8,100,30.57,5.0,North,2.3,-,N/A,,Overcast,10,2013-12-02 04:50:00
5:50 AM,42.8,42.8,100,30.57,5.0,NNE,2.3,-,N/A,,Overcast,30,2013-12-02 05:50:00
6:00 AM,43,42,96,30.58,5,NNE,2.3,,,,Mist,30,2013-12-02 06:00:00
6:50 AM,42.8,42.8,100,30.57,5.0,East,2.3,-,N/A,,Haze,80,2013-12-02 06:50:00
7:50 AM,42.8,42.8,100,30.57,2.5,NNE,3.5,-,N/A,,Overcast,30,2013-12-02 07:50:00
8:50 AM,42.8,42.8,100,30.57,2.5,East,1.2,-,N/A,,Overcast,80,2013-12-02 08:50:00
9:00 AM,43,42,97,30.58,2,East,1.2,,,,Mist,80,2013-12-02 09:00:00
9:50 AM,44.6,42.8,93,30.57,3.1,ENE,3.5,-,N/A,,Haze,60,2013-12-02 09:50:00
10:50 AM,46.4,42.8,87,30.54,6.2,East,2.3,-,N/A,,Overcast,100,2013-12-02 10:50:00
11:50 AM,46.4,42.8,87,30.54,6.2,SSE,3.5,-,N/A,,Mostly Cloudy,150,2013-12-02 11:50:00
12:00 PM,46,42,81,30.55,9,SSE,3.5,,,,Mostly Cloudy,150,2013-12-02 12:00:00
12:50 PM,46.4,41.0,81,30.51,6.2,ESE,2.3,-,N/A,,Overcast,120,2013-12-02 12:50:00
1:50 PM,46.4,39.2,76,30.51,6.2,NE,2.3,-,N/A,,Overcast,40,2013-12-02 13:50:00
2:50 PM,46.4,37.4,71,30.51,6.2,ENE,3.5,-,N/A,,Overcast,60,2013-12-02 14:50:00
3:00 PM,46,38,63,30.52,16,ENE,3.5,,,,Overcast,60,2013-12-02 15:00:00
3:50 PM,46.4,39.2,76,30.48,6.2,NE,2.3,-,N/A,,Overcast,50,2013-12-02 15:50:00
4:50 PM,44.6,37.4,76,30.48,6.2,NNE,4.6,-,N/A,,Overcast,20,2013-12-02 16:50:00
5:50 PM,44.6,39.2,81,30.48,6.2,ENE,2.3,-,N/A,,Mostly Cloudy,70,2013-12-02 17:50:00
6:00 PM,44,38,73,30.50,19,ENE,2.3,,,,Mostly Cloudy,70,2013-12-02 18:00:00
6:50 PM,41.0,37.4,87,30.48,6.2,North,2.3,-,N/A,,Mostly Cloudy,10,2013-12-02 18:50:00
7:50 PM,39.2,35.6,87,30.48,6.2,NW,1.2,-,N/A,,Scattered Clouds,310,2013-12-02 19:50:00
8:50 PM,39.2,35.6,87,30.48,6.2,NNW,3.5,-,N/A,,Mostly Cloudy,330,2013-12-02 20:50:00
9:00 PM,39,36,85,30.50,16,NNW,3.5,,,,Mostly Cloudy,330,2013-12-02 21:00:00
9:50 PM,41.0,37.4,87,30.48,6.2,North,3.5,-,N/A,,Mostly Cloudy,360,2013-12-02 21:50:00
10:50 PM,41.0,37.4,87,30.45,6.2,South,1.2,-,N/A,,Mostly Cloudy,170,2013-12-02 22:50:00
11:50 PM,41.0,37.4,87,30.45,6.2,Calm,Calm,-,N/A,,Mostly Cloudy,0,2013-12-02 23:50:00